Location: El Collado
(40.4315°N, 5.3587°W)
Time: 20:01:25
(UTC+00:00)

Daily predictions for brighter satellites

Satellite Brightness Start Highest point End
(mag) Time Altitude Azimuth Time Altitude Azimuth Time Altitude Azimuth
Meteor 1-13 Rocket 4.3 20:16:44 10° S 20:22:29 82° E 20:28:08 10° NNE
SL-14 R/B 4.0 20:23:59 10° SSE 20:27:23 32° E 20:30:48 10° NNE
SL-4 R/B 4.2 20:27:05 10° NNW 20:29:49 19° NNE 20:32:40 10° ENE
Cosmos 2333 Rocket 2.7 20:24:41 10° NNW 20:30:15 47° ENE 20:35:47 10° SE
Cosmos 1655 Rocket 4.4 20:26:19 10° SSE 20:32:20 45° E 20:38:22 10° NNE
BlueWalker 3 2.1 20:28:57 10° SW 20:32:42 77° NW 20:36:28 10° NE
Cosmos 968 Rocket 3.5 20:28:41 10° S 20:33:43 60° ESE 20:38:51 10° NNE
SL-24 R/B 4.0 20:29:22 10° SSE 20:33:49 82° ENE 20:37:46 10° N
Cosmos 1833 4.2 20:31:36 10° S 20:37:10 67° ESE 20:42:45 10° NNE
CZ-4C R/B 3.9 20:33:44 10° NNE 20:37:38 41° E 20:41:26 10° S
Cosmos 1932 4.5 20:32:45 10° SSW 20:39:04 71° ESE 20:45:20 10° NE
ASTRO E2 4.3 20:40:19 10° SW 20:42:25 15° S 20:44:32 10° SSE
CARTOSAT-1 4.4 20:38:34 10° S 20:42:42 51° W 20:46:52 10° NNW
Cosmos 1733 Rocket 3.9 20:40:05 10° N 20:44:07 34° ENE 20:47:58 11° SE
Resurs 01 Rocket 2.6 20:39:58 10° S 20:44:11 47° W 20:48:26 10° NNW
Cosmos 1356 Rocket 3.6 20:40:17 10° S 20:44:22 55° E 20:48:29 10° NNE
Meteor 1-23 Rocket 4.2 20:39:25 10° S 20:45:04 76° E 20:50:50 10° NNE
Cosmos 1850 Rocket 4.3 20:41:18 10° SSW 20:46:30 72° WNW 20:51:41 10° NNE
Cosmos 2322 Rocket 2.3 20:45:15 10° NNW 20:50:58 85° WSW 20:56:40 10° SSE
USA 234 3.9 20:47:09 10° ENE 20:52:53 32° SE 20:58:34 10° S
MOS 1 4.3 20:48:16 10° SSE 20:53:53 76° ENE 20:59:31 10° N
Atlas Centaur 2 4.3 20:52:46 10° WSW 20:58:03 21° SSW 21:03:40 10° SSE
CZ-4 R/B 4.1 20:56:36 10° SW 20:58:55 15° W 21:01:17 10° NW
ARGOS Delta rocket 3.6 20:54:41 10° SSE 20:59:03 69° ENE 21:03:25 10° N
Cosmos 1758 3.3 20:55:10 10° N 20:59:06 67° E 21:02:42 12° SSE
MOS 1 Rocket 4.5 20:58:40 13° SE 21:02:45 34° ENE 21:07:24 10° N
Cosmos 1300 2.4 20:59:32 10° N 21:03:05 72° E 21:06:06 14° SSE
Delta 2 Rocket 4.2 21:04:54 10° SSW 21:07:11 18° SSE 21:07:20 18° SSE
Cosmos 2219 Rocket 2.6 21:01:49 10° NNW 21:07:22 52° ENE 21:11:43 16° SE
ERS-1 Rocket 3.3 21:03:31 14° SE 21:07:37 51° ENE 21:12:28 10° N
Cosmos 1814 Rocket 4.2 21:03:05 10° NNW 21:08:23 64° ENE 21:12:36 16° SSE
Cosmos 2315 Rocket 4.0 21:03:44 10° N 21:10:10 79° E 21:16:21 11° S
Terra 2.3 21:07:31 16° SE 21:10:58 44° ENE 21:15:27 10° N
SPOT 5 2.6 21:09:54 12° SSE 21:13:49 86° WSW 21:18:19 10° NNW
Meteor 1-4 Rocket 1.9 21:16:04 16° S 21:18:16 71° E 21:21:16 10° NNE
Aureole 3 3.7 21:18:08 11° S 21:22:14 78° E 21:27:37 10° N
Landsat 4 4.4 21:24:23 23° ESE 21:25:46 33° ENE 21:28:52 10° N
Cosmos 2084 Rocket 4.4 21:25:43 23° SE 21:26:51 26° ESE 21:30:23 10° ENE
Okean-O 3.8 21:24:39 10° SSW 21:28:46 39° W 21:32:55 10° NNW
CZ-4C R/B 2.0 21:28:14 15° S 21:31:26 41° ESE 21:36:13 10° NE
SJ 16-02 2.5 21:27:40 10° SW 21:31:47 44° WNW 21:35:57 10° N
SPOT 3 Rocket 3.8 21:30:22 22° SE 21:33:34 56° ENE 21:38:38 10° N
COSMOS 2428 3.5 21:28:27 10° N 21:33:49 40° ENE 21:37:11 21° ESE
Cosmos 1953 2.8 21:31:02 10° N 21:34:39 40° ENE 21:36:01 29° SE
Cosmos 1455 2.8 21:33:01 10° N 21:36:17 36° ENE 21:37:15 30° ESE
Cosmos 2360 Rocket 3.0 21:31:04 10° NW 21:36:27 46° WSW 21:41:02 14° S
BREEZE-M DEB (TANK) 3.5 21:34:28 10° SW 21:39:51 - ENE 21:36:21 29° S
USA 245 3.6 21:34:55 23° S 21:37:25 85° WSW 21:42:23 10° NNW
Spot 2 Rocket 3.5 21:34:54 22° SSE 21:38:09 74° ENE 21:43:15 10° N
Okean O Rocket 4.1 21:35:47 10° SW 21:38:34 16° W 21:41:21 10° NW
ATLAS 2AS CENTAUR R/B 3.1 21:34:08 10° NW 21:40:39 53° WSW 21:45:21 19° S
Cosmos 1703 Rocket 3.8 21:41:35 28° SSE 21:43:40 51° E 21:47:59 10° NNE
Cosmos 1242 Rocket 1.8 21:44:43 56° ESE 21:44:47 56° E 21:47:27 10° NNE
Okean 1-7 2.9 21:42:51 20° S 21:45:49 88° E 21:50:08 10° N
Cosmos 1315 Rocket 2.9 21:44:20 17° SSW 21:47:21 74° W 21:51:21 10° N
SL-23 DEB 4.4 21:48:12 34° SE 21:48:30 35° SE 21:53:04 10° ENE
Cosmos 1346 Rocket 4.4 21:49:26 10° NNW 21:52:45 28° W 21:55:36 12° SSW
SeaSat 1 2.5 21:52:49 30° SE 21:55:12 67° ENE 22:00:05 10° NNW
Cosmos 2208 Rocket 4.4 21:51:15 10° N 21:56:18 50° ENE 21:58:30 30° SE
COSMOS 2455 2.8 21:51:06 10° SSW 21:57:05 74° ESE 22:03:07 10° NNE
Landsat 5 3.5 21:56:35 10° NNE 22:00:43 62° E 22:02:11 38° SSE
Cosmos 1408 3.8 22:02:06 22° ENE 22:02:06 22° ENE 22:03:46 10° NNE
Ariane Rocket 3.1 22:00:37 26° S 22:03:28 70° WSW 22:08:33 10° NNW
Cosmos 158 Rocket 4.2 21:59:57 10° NNW 22:05:07 57° ENE 22:07:05 35° SE
SL-4 R/B 2.4 22:05:17 10° NW 22:09:09 57° NNE 22:10:36 35° E
Cosmos 1486 Rocket 3.9 22:08:49 29° S 22:11:26 71° ESE 22:16:38 10° NNE
CENTAUR R/B 3.2 22:11:56 27° ESE 22:12:06 27° ESE 22:17:19 10° NE
Okean 2 4.3 22:09:45 18° SW 22:12:26 43° W 22:16:18 10° N
Cosmos 2333 Rocket 4.0 22:09:38 10° NW 22:14:10 24° WSW 22:18:12 12° SSW
NOSS 5 (C) 4.1 22:11:11 10° NW 22:14:20 88° NE 22:14:29 80° SE
Cosmos 2237 Rocket 3.2 22:12:11 10° N 22:17:23 36° ENE 22:19:45 25° ESE
Cosmos 2227 Rocket 3.1 22:18:48 29° ESE 22:19:11 29° ESE 22:23:59 10° NE
Cosmos 2322 4.0 22:24:51 10° NNW 22:30:24 58° WSW 22:32:34 35° S
Cosmos 1980 4.2 22:26:19 10° NNW 22:31:50 49° ENE 22:33:48 35° ESE
Cosmos 1354 Rocket 4.3 22:31:07 44° SE 22:32:01 49° ESE 22:37:07 10° NNE
Cosmos 2242 Rocket 3.6 22:31:20 55° SE 22:32:01 63° E 22:36:33 10° NNE
Cosmos 1709 Rocket 4.1 22:33:28 39° SSE 22:35:50 65° E 22:42:07 10° NNE
USA 234 3.5 22:29:39 10° NE 22:36:09 71° NW 22:42:38 10° WSW
Cosmos 2297 Rocket 2.1 22:35:31 34° SSW 22:38:06 84° ESE 22:43:47 10° NNE
Cosmos 1782 Rocket 3.7 22:42:24 10° NNW 22:46:42 65° W 22:47:21 56° SW
Cosmos 371 Rocket 3.7 22:45:02 29° SW 22:47:19 58° WNW 22:52:06 10° NNE
Terra 4.0 22:46:13 13° SW 22:48:44 18° W 22:51:58 10° NW
MetOp-A 4.4 22:48:22 39° SSW 22:50:00 55° W 22:55:07 10° NNW
Cosmos 2219 Rocket 4.0 22:46:41 10° NW 22:50:51 21° W 22:53:26 16° SW
Cosmos 2219 4.2 22:51:46 29° E 22:51:46 29° E 22:56:14 10° NE
USA 281 3.7 22:50:46 31° ESE 22:53:34 50° ENE 22:59:52 10° NNW
Cosmos 1300 Rocket 3.6 22:49:22 10° NNW 22:53:39 67° W 22:54:07 61° SW
Meteor 1-24 Rocket 3.7 22:52:47 51° SSE 22:54:07 69° E 22:59:39 10° NNE
Cosmos 1703 3.3 22:55:32 67° N 22:55:32 67° N 22:58:46 10° N
Cosmos 773 Rocket 3.9 22:50:59 10° NNW 22:56:11 86° ENE 22:57:07 61° SSE
ARIANE 5 R/B 2.5 22:57:21 65° E 22:57:35 67° ENE 23:01:55 10° N
PSLV R/B 4.1 22:55:42 10° NNE 22:59:11 59° ENE 22:59:11 59° ENE
Cosmos 2263 Rocket 3.5 23:01:07 23° E 23:01:07 23° E 23:04:52 10° NE
GP-B 3.8 22:59:36 10° N 23:03:49 46° W 23:04:43 40° WSW
Cosmos 1378 Rocket 3.9 23:10:40 54° ENE 23:10:40 54° ENE 23:14:37 10° NNE
Cosmos 1674 Rocket 4.1 23:14:09 47° ENE 23:14:09 47° ENE 23:17:50 10° NNE
COSMOS 2428 4.0 23:13:02 10° NW 23:17:50 28° WSW 23:19:10 26° SW
NOSS 0 Rocket 4.5 23:11:58 10° NW 23:17:54 47° WSW 23:19:23 40° SW
NOSS 3-2 (A) 3.2 23:18:38 55° ESE 23:18:38 55° ESE 23:24:06 10° NE
CZ-4C R/B 4.0 23:16:11 10° W 23:20:01 25° NW 23:24:36 10° NNE
Cosmos 1825 3.6 23:23:13 28° NE 23:23:13 28° NE 23:25:06 10° NNE
CZ-3 Stage 3 4.3 22:46:44 10° W 23:21:50 44° SW 23:25:33 36° S
NOSS 3-2 (C) 4.4 23:30:22 25° E 23:30:22 25° E 23:33:58 10° NE
Cosmos 2151 Rocket 3.6 23:27:43 10° N 23:31:48 70° NE 23:31:48 70° NE
H-2A R/B 2.6 23:32:47 75° N 23:32:47 75° N 23:36:40 10° NNW
SeaSat 1 4.5 23:32:31 15° WSW 23:33:00 15° WSW 23:35:51 10° WNW
Cosmos 1892 3.8 23:34:58 39° N 23:34:58 39° N 23:37:17 10° N
Cosmos 2098 Rocket 3.9 23:30:33 10° NNW 23:36:58 71° W 23:38:07 56° SSW
Okean 2 Rocket 3.1 23:32:35 10° N 23:36:50 74° NE 23:36:50 74° NE
ALOS 2 2.8 23:42:15 65° NE 23:42:15 65° NE 23:46:21 10° N
Cosmos 405 Rocket 3.9 23:41:26 10° NNW 23:44:11 37° WNW 23:44:11 37° WNW
Aureole 1 Rocket 3.8 23:48:39 42° NE 23:48:39 42° NE 23:52:05 10° NNE
SL-4 R/B 4.4 23:44:27 10° W 23:45:19 14° W 23:45:19 14° W
